Zurück zum Katalog

GLOBALSTAR M061

AktivKommunikationLEO
NORAD 25964·PAYLOAD·🇺🇸 United States

Gestartet Nov 22, 1999 von Baikonur Cosmodrome

Loading…

Nächste Überflüge (nächste 24 Stunden)

TLE

AktuellSource: Space-Track

Epoche: Sep 14, 2026, 21:17 UTC

1 25964U 99062D   26257.88704102 -.00000072  00000-0  13699-3 0  9995
2 25964  51.9773  99.4896 0006835  97.1696 302.4984 11.76779918174711

Verfolge GLOBALSTAR M061 in Echtzeit mit AllMySat

Download on the App Store